Weather History for EHBK - September, 2013

Change the Weather History Date:

Tuesday, September 17, 2013

  Actual Average Record
Temperature  
Mean Temperature 50 °F -  
Max Temperature 55 °F 61 °F 78 °F (2003)
Min Temperature 44 °F 47 °F 42 °F (1996)
Degree Days  
Heating Degree Days 16    
Moisture  
Dew Point 45 °F    
Average Humidity 83    
Maximum Humidity 100    
Minimum Humidity 58    
Precipitation  
Precipitation 0.16 in 0.08 in - ()
Sea Level Pressure  
Sea Level Pressure 29.59 in    
Wind  
Wind Speed 12 mph ()    
Max Wind Speed 21 mph    
Max Gust Speed -    
Visibility 6.9 miles    
Events Rain    
Averages and records for this station are not official NWS values.
T = Trace of Precipitation, MM = Missing Value Source: Averaged Metar Reports

Daily Weather History Graph

Daily Weather History Graph

Search for Another Location

Airport or City:

Trip Planner

Search our weather history database for the weather conditions in past years. The results will help you decide how hot, cold, wet, or windy it might be!

Date:

Astronomy

Sep. 17, 2013 Rise Set
Actual Time 7:15 AM CEST 7:46 PM CEST
Civil Twilight 6:42 AM CEST 8:19 PM CEST
Nautical Twilight 6:02 AM CEST 8:58 PM CEST
Astronomical Twilight 5:21 AM CEST 9:39 PM CEST
Moon 6:30 PM CEST (9/17) 4:40 AM CEST (9/17)
Length of Visible Light 13h 37m
Length of Day
12h 30m
Waxing Gibbous, 94% of the Moon is Illuminated
Sep 17
Waxing Gibbous
Sep 19
Full
Sep 27
Last Quarter
Oct 5
New
Oct 12
First Quarter

Hourly Weather History & Observations

Time (CEST) Temp. Windchill Dew Point Humidity Pressure Visibility Wind Dir Wind Speed Gust Speed Precip Events Conditions
12:25 AM 46.4 °F 41.1 °F 41.0 °F 81% 29.62 in 6.2 mi SSW 11.5 mph - N/A   Unknown
12:55 AM 46.4 °F 41.5 °F 41.0 °F 81% 29.62 in 6.2 mi SW 10.4 mph - N/A   Unknown
1:25 AM 46.4 °F 41.1 °F 42.8 °F 87% 29.62 in 6.2 mi SSW 11.5 mph - N/A   Scattered Clouds
1:55 AM 46.4 °F 41.5 °F 42.8 °F 87% 29.62 in 6.2 mi SSW 10.4 mph - N/A   Mostly Cloudy
2:00 AM 46 °F - 43 °F 84% 29.65 in 19 mi SSW 11.2 mph - -   Partly Cloudy
2:25 AM 46.4 °F 41.1 °F 42.8 °F 87% 29.62 in 6.2 mi SW 11.5 mph - N/A   Scattered Clouds
2:55 AM 44.6 °F 38.8 °F 42.8 °F 93% 29.62 in 6.2 mi SW 11.5 mph - N/A   Unknown
3:25 AM 46.4 °F 41.5 °F 42.8 °F 87% 29.62 in 6.2 mi SW 10.4 mph - N/A   Unknown
3:55 AM 46.4 °F 41.5 °F 42.8 °F 87% 29.62 in 6.2 mi SW 10.4 mph - N/A   Partly Cloudy
4:25 AM 46.4 °F 40.7 °F 42.8 °F 87% 29.62 in 6.2 mi SW 12.7 mph - N/A   Partly Cloudy
4:55 AM 46.4 °F 41.1 °F 41.0 °F 81% 29.62 in 6.2 mi SW 11.5 mph - N/A   Partly Cloudy
5:25 AM 44.6 °F 38.4 °F 41.0 °F 87% 29.62 in 6.2 mi SSW 12.7 mph - N/A   Unknown
5:55 AM 44.6 °F 38.1 °F 41.0 °F 87% 29.62 in 6.2 mi SSW 13.8 mph - N/A   Unknown
6:25 AM 44.6 °F 38.1 °F 41.0 °F 87% 29.65 in 6.2 mi SSW 13.8 mph - N/A   Unknown
6:55 AM 44.6 °F 38.1 °F 41.0 °F 87% 29.65 in 6.2 mi SSW 13.8 mph - N/A   Unknown
7:25 AM 44.6 °F 38.4 °F 41.0 °F 87% 29.65 in 6.2 mi SSW 12.7 mph - N/A   Unknown
7:55 AM 44.6 °F 38.4 °F 41.0 °F 87% 29.65 in 6.2 mi SSW 12.7 mph - N/A   Unknown
8:00 AM 45 °F - 41 °F 82% 29.67 in 15 mi SSW 13.4 mph - -   Partly Cloudy
8:25 AM 44.6 °F 37.8 °F 41.0 °F 87% 29.65 in 6.2 mi SSW 15.0 mph - N/A   Unknown
8:55 AM 46.4 °F 40.4 °F 42.8 °F 87% 29.65 in 6.2 mi SSW 13.8 mph - N/A   Partly Cloudy
9:25 AM 50.0 °F - 42.8 °F 76% 29.65 in 6.2 mi SW 15.0 mph - N/A   Unknown
9:55 AM 50.0 °F - 44.6 °F 82% 29.65 in 6.2 mi SW 16.1 mph - N/A   Partly Cloudy
10:25 AM 51.8 °F - 44.6 °F 76% 29.65 in 6.2 mi SSW 15.0 mph - N/A   Partly Cloudy
10:55 AM 53.6 °F - 44.6 °F 72% 29.65 in 6.2 mi SW 18.4 mph - N/A   Scattered Clouds
11:00 AM 53 °F - 44 °F 64% 29.68 in 12 mi SW 17.9 mph - -   Partly Cloudy
11:25 AM 55.4 °F - 44.6 °F 67% 29.65 in 6.2 mi SW 18.4 mph - N/A   Partly Cloudy
11:55 AM 53.6 °F - 44.6 °F 72% 29.65 in 6.2 mi SW 19.6 mph - N/A   Mostly Cloudy
12:25 PM 55.4 °F - 44.6 °F 67% 29.65 in 6.2 mi SW 19.6 mph - N/A   Scattered Clouds
12:55 PM 53.6 °F - 44.6 °F 72% 29.65 in 6.2 mi SW 20.7 mph - N/A   Mostly Cloudy
1:25 PM 53.6 °F - 44.6 °F 72% 29.65 in 6.2 mi SW 19.6 mph - N/A   Mostly Cloudy
1:55 PM 53.6 °F - 44.6 °F 72% 29.65 in 6.2 mi SSW 18.4 mph - N/A   Scattered Clouds
2:00 PM 53 °F - 43 °F 58% 29.66 in 16 mi SW 17.9 mph - -   Partly Cloudy
2:25 PM 53.6 °F - 44.6 °F 72% 29.65 in 6.2 mi SW 17.3 mph - N/A   Partly Cloudy
2:55 PM 53.6 °F - 42.8 °F 67% 29.62 in 6.2 mi SW 18.4 mph - N/A   Unknown
3:25 PM 50.0 °F - 46.4 °F 87% 29.62 in 6.2 mi SW 16.1 mph - N/A   Drizzle
3:55 PM 53.6 °F - 46.4 °F 77% 29.62 in 6.2 mi SW 11.5 mph - N/A   Partly Cloudy
4:25 PM 53.6 °F - 46.4 °F 77% 29.59 in 6.2 mi SW 12.7 mph - N/A   Partly Cloudy
4:55 PM 55.4 °F - 46.4 °F 72% 29.59 in 6.2 mi SW 10.4 mph - N/A   Scattered Clouds
5:00 PM 55 °F - 46 °F 62% 29.62 in 14 mi SW 11.2 mph - -   Partly Cloudy
5:25 PM 55.4 °F - 46.4 °F 72% 29.59 in 6.2 mi SW 11.5 mph - N/A   Mostly Cloudy
5:55 PM 50.0 °F - 46.4 °F 87% 29.59 in 4.3 mi West 11.5 mph - N/A Rain Heavy Rain Showers
6:25 PM 50.0 °F - 48.2 °F 94% 29.59 in 4.3 mi WSW 8.1 mph - N/A Rain Rain Showers
6:55 PM 50.0 °F - 48.2 °F 94% 29.56 in 6.2 mi SW 8.1 mph - N/A Rain Light Rain Showers
7:25 PM 50.0 °F - 48.2 °F 94% 29.56 in 6.2 mi SSW 9.2 mph - N/A Rain Light Rain
7:55 PM 50.0 °F - 50.0 °F 100% 29.53 in 6.2 mi South 10.4 mph - N/A Rain Light Rain
8:00 PM 51 °F - 49 °F 90% 29.55 in 7 mi South 8.9 mph - - Rain Light Rain
8:25 PM 50.0 °F - 48.2 °F 94% 29.50 in 6.2 mi South 10.4 mph - N/A   Drizzle
8:55 PM 50.0 °F - 48.2 °F 94% 29.47 in 6.2 mi SSE 9.2 mph - N/A Rain Light Rain
9:25 PM 50.0 °F - 48.2 °F 94% 29.47 in 6.2 mi South 10.4 mph - N/A Rain Heavy Rain Showers
9:55 PM 50.0 °F - 50.0 °F 100% 29.44 in 5.0 mi South 10.4 mph - N/A Rain Heavy Drizzle
10:25 PM 51.8 °F - 50.0 °F 94% 29.42 in 5.0 mi South 9.2 mph - N/A   Light Drizzle
10:55 PM 51.8 °F - 50.0 °F 94% 29.39 in 5.6 mi South 11.5 mph - N/A   Drizzle
11:00 PM 52 °F - 50 °F 90% 29.39 in 8 mi South 11.2 mph - - Rain Light Drizzle
11:25 PM 51.8 °F - 50.0 °F 94% 29.36 in 6.2 mi South 12.7 mph - N/A   Drizzle
11:55 PM 51.8 °F - 51.8 °F 100% 29.36 in 6.2 mi South 16.1 mph - N/A Rain Light Rain